Regional Weather Roundup
Issued by NWS Cleveland, OH

Home | Current Version | Previous Version | Graphics & Text | Print | Product List | Glossary On
Versions: 1 2 3 4 5 6 7 8 9 10 11 12 13 14 15 16 17 18 19 20 21 22 23 24 25 26 27 28 29 30 31 32 33 34 35 36 37 38 39 40 41 42 43 44 45 46 47 48 49 50
000
ASUS41 KCLE 261402
RWRCLE
OHIO REGIONAL WEATHER ROUNDUP
NATIONAL WEATHER SERVICE CLEVELAND, OH
1000 AM EDT SAT JUL 26 2014

NOTE: "FAIR" INDICATES FEW OR NO CLOUDS BELOW 12,000 FEET WITH NO
SIGNIFICANT WEATHER AND/OR OBSTRUCTIONS TO VISIBILITY.

OHZ001>008-015>018-024>027-034-035-043-044-261500-
   NORTHWEST OHIO

CITY           SKY/WX    TMP DP  RH WIND       PRES   REMARKS
DEFIANCE       SUNNY     74  61  63 VRB6      29.93S
FINDLAY        SUNNY     75  61  61 SW8       29.93F
TOLEDO EXPRESS SUNNY     72  60  66 SW8       29.93R
TOLEDO EXEC    SUNNY     74  60  61 SW10      29.94S
LIMA           PTSUNNY   74  62  66 SW9       29.95S
$$

OHZ009>014-019>023-028>033-038-089-261500-
   NORTHEAST OHIO

CITY           SKY/WX    TMP DP  RH WIND       PRES   REMARKS
CLE-HOPKINS    MOSUNNY   73  61  65 SW12      29.97S
CLE-LAKEFRONT  SUNNY     75  59  57 SW9       29.94S
CUY CO. ARPT   MOSUNNY   75  63  64 SW9       29.96F
LORAIN-ELYRIA  SUNNY     75  60  59 SW8       29.96S
ASHTABULA      SUNNY     72  59  63 SW6       29.98S
AKRON-CANTON   MOSUNNY   75  60  59 SW9       29.98S
WOOSTER        PTSUNNY   73  62  68 SW9       29.98F
MANSFIELD      PTSUNNY   73  60  63 S12       29.98S
YOUNGSTOWN     MOSUNNY   70  61  73 S8        29.99S
$$

OHZ042-051>053-060>062-070>072-077>081-261500-
  SOUTHWEST OHIO

CITY           SKY/WX    TMP DP  RH WIND       PRES   REMARKS
CINC-COVINGTON CLOUDY    70  61  73 S7        30.00R
CINC-LUNKEN    PTSUNNY   72  64  76 S7        29.99S
HAMILTON       LGT RAIN  72  64  76 VRB5      29.99R
DAYTON         PTSUNNY   74  62  66 SW9       29.97S
WRIGHT-PAT AFB MOSUNNY   73  63  69 S7        29.97S
DAYTON GENERAL CLOUDY    73  64  73 SW7       29.97S
WILMINGTON     MOSUNNY   74  62  66 SW9       29.99S
$$

OHZ036-037-039>041-045>050-054>059-063>069-073>076-082>088-261500-
  CENTRAL AND SOUTHEAST OHIO

CITY           SKY/WX    TMP DP  RH WIND       PRES   REMARKS
COLUMBUS       MOSUNNY   76  61  59 S7        29.98R
OSU AIRPORT    SUNNY     75  62  64 S8        29.97S
BOLTON FIELD   SUNNY     73  64  73 S7        29.99R
RICKENBACK AFB MOSUNNY   76  59  55 S10       29.98S
NEWARK         SUNNY     74  61  63 S8        29.98S
MARION         SUNNY     74  61  63 S8        29.97S
LANCASTER      SUNNY     75  63  66 S9        29.99S
ZANESVILLE     SUNNY     74  61  63 SW7       30.00R
NEW PHILLY     SUNNY     74  63  68 SW6       29.99S
$$



USA.gov is the U.S. government's official web portal to all federal, state and local government web resources and services.